CW9721 Weather Reports


Display with metric or nautical units.
time (UTC)temp
F
wind
direction
speed
MPH
gust
MPH
rain 1hr
in
rain 24hr
in
rain mn
in
humidity
%
barometer
mb
20260503235855 57 341 0.0 1.0 0.00 0.00 0.00 42 1015.0
20260503235416 58 341 0.0 2.0 0.00 0.00 0.00 41 1014.9
20260503234827 58 355 1.0 4.0 0.00 0.00 0.00 42 1014.9
20260503234328 58 252 1.0 5.0 0.00 0.00 0.00 40 1014.8
20260503233835 59 238 2.0 5.0 0.00 0.00 0.00 39 1014.8
20260503233351 59 250 2.0 5.0 0.00 0.00 0.00 38 1014.8
20260503232903 59 238 2.0 5.0 0.00 0.00 0.00 37 1014.8
20260503232404 59 294 3.0 5.0 0.00 0.00 0.00 38 1014.9
20260503231858 59 281 1.0 4.0 0.00 0.00 0.00 38 1014.7
20260503231429 59 194 1.0 0.0 0.00 0.00 0.00 38 1014.5
20260503230827 59 13 1.0 5.0 0.00 0.00 0.00 38 1014.5
20260503230344 60 306 1.0 5.0 0.00 0.00 0.00 38 1014.6
20260503225853 60 277 1.0 6.0 0.00 0.00 0.00 37 1014.6
20260503225359 60 228 1.0 9.0 0.00 0.00 0.00 37 1014.8
20260503224851 60 346 1.0 8.0 0.00 0.00 0.00 37 1014.7
20260503224357 60 240 1.0 8.0 0.00 0.00 0.00 36 1014.7
20260503223437 60 242 4.0 9.0 0.00 0.00 0.00 37 1014.7
20260503222925 60 310 2.0 10.0 0.00 0.00 0.00 35 1014.7
20260503222407 61 259 3.0 14.0 0.00 0.00 0.00 35 1014.7
20260503221827 61 5 5.0 14.0 0.00 0.00 0.00 34 1014.6
20260503221334 61 229 3.0 9.0 0.00 0.00 0.00 34 1014.5
20260503220834 61 134 4.0 9.0 0.00 0.00 0.00 35 1014.7
20260503220340 62 230 3.0 8.0 0.00 0.00 0.00 34 1014.6
20260503215841 62 300 2.0 7.0 0.00 0.00 0.00 34 1014.6
20260503215343 62 291 3.0 11.0 0.00 0.00 0.00 32 1014.6
20260503214841 63 316 3.0 11.0 0.00 0.00 0.00 32 1014.6
20260503214402 64 226 4.0 10.0 0.00 0.00 0.00 31 1014.6
20260503213911 64 302 4.0 8.0 0.00 0.00 0.00 31 1014.5
20260503213420 64 250 3.0 9.0 0.00 0.00 0.00 31 1014.6
20260503212930 64 256 3.0 13.0 0.00 0.00 0.00 33 1014.6
20260503211832 64 322 5.0 12.0 0.00 0.00 0.00 31 1014.6
20260503211338 64 335 3.0 8.0 0.00 0.00 0.00 32 1014.5
20260503210843 65 225 5.0 16.0 0.00 0.00 0.00 31 1014.6
20260503205848 64 213 1.0 9.0 0.00 0.00 0.00 31 1014.4
20260503205354 64 214 4.0 10.0 0.00 0.00 0.00 31 1014.5
20260503204848 64 235 4.0 12.0 0.00 0.00 0.00 33 1014.4
20260503204358 64 21 6.0 14.0 0.00 0.00 0.00 31 1014.4
20260503203909 64 291 3.0 13.0 0.00 0.00 0.00 33 1014.5
20260503203327 64 293 7.0 13.0 0.00 0.00 0.00 31 1014.5
20260503202936 64 226 4.0 9.0 0.00 0.00 0.00 33 1014.4
20260503202418 65 319 6.0 11.0 0.00 0.00 0.00 32 1014.5
20260503201905 65 355 5.0 9.0 0.00 0.00 0.00 32 1014.5
20260503201347 64 9 4.0 8.0 0.00 0.00 0.00 32 1014.6
20260503200837 64 242 4.0 8.0 0.00 0.00 0.00 34 1014.6
20260503200340 64 327 3.0 11.0 0.00 0.00 0.00 34 1014.7
20260503195842 64 13 5.0 15.0 0.00 0.00 0.00 33 1014.7
20260503194934 63 32 6.0 12.0 0.00 0.00 0.00 35 1014.7
20260503194406 63 17 5.0 12.0 0.00 0.00 0.00 34 1014.6
20260503193910 63 313 5.0 12.0 0.00 0.00 0.00 34 1015.0
20260503193404 64 312 5.0 10.0 0.00 0.00 0.00 33 1015.0
20260503192913 64 301 4.0 9.0 0.00 0.00 0.00 33 1015.1
20260503191824 63 148 3.0 12.0 0.00 0.00 0.00 35 1015.1
20260503191350 63 32 4.0 12.0 0.00 0.00 0.00 35 1015.2
20260503190420 64 338 7.0 15.0 0.00 0.00 0.00 35 1015.3
20260503185854 63 194 4.0 13.0 0.00 0.00 0.00 36 1015.4
20260503185402 63 150 4.0 16.0 0.00 0.00 0.00 34 1015.4
20260503184834 63 336 7.0 16.0 0.00 0.00 0.00 35 1015.4
20260503184337 63 264 3.0 13.0 0.00 0.00 0.00 35 1015.4
20260503183857 63 279 5.0 13.0 0.00 0.00 0.00 37 1015.5
20260503183407 62 168 5.0 12.0 0.00 0.00 0.00 35 1015.4
20260503182345 63 189 7.0 13.0 0.00 0.00 0.00 36 1015.6
20260503181912 63 277 5.0 11.0 0.00 0.00 0.00 36 1015.4
20260503181408 62 32 2.0 10.0 0.00 0.00 0.00 39 1015.5
20260503180916 61 187 4.0 12.0 0.00 0.00 0.00 37 1015.4
20260503180404 61 241 4.0 12.0 0.00 0.00 0.00 38 1015.7
20260503175921 61 319 5.0 13.0 0.00 0.01 0.00 37 1015.7
20260503175357 61 355 9.0 15.0 0.00 0.01 0.00 37 1015.4
20260503174331 61 273 5.0 12.0 0.00 0.01 0.00 37 1015.9
20260503173846 61 333 5.0 12.0 0.00 0.01 0.00 39 1015.8
20260503173346 60 279 4.0 13.0 0.00 0.01 0.00 38 1016.0
20260503172847 60 309 7.0 15.0 0.00 0.01 0.00 38 1015.9
20260503172338 60 36 6.0 14.0 0.00 0.01 0.00 37 1016.1
20260503171836 60 338 5.0 21.0 0.00 0.01 0.00 36 1016.1
20260503171349 61 267 4.0 21.0 0.00 0.01 0.00 37 1016.1
20260503170857 62 5 7.0 15.0 0.00 0.01 0.00 36 1016.0
20260503170413 61 59 5.0 11.0 0.00 0.01 0.00 38 1016.1
20260503150927 57 319 4.0 13.0 0.00 0.03 0.00 47 1016.4
20260503150335 57 345 5.0 20.0 0.00 0.03 0.00 42 1016.5
20260503130913 55 316 9.0 15.0 0.00 0.03 0.00 53 1016.0
20260503130407 55 14 6.0 15.0 0.00 0.03 0.00 52 1016.0
20260503110825 52 34 7.0 11.0 0.00 0.03 0.00 56 1014.6
20260503110325 52 360 5.0 19.0 0.00 0.03 0.00 59 1014.6
20260503090351 54 21 6.0 14.0 0.00 0.03 0.00 64 1012.4
20260503081342 53 348 3.0 14.0 0.00 0.03 0.00 65 1011.9
20260503080850 53 345 4.0 14.0 0.00 0.03 0.00 66 1011.8
20260503080410 53 330 5.0 13.0 0.00 0.03 0.00 67 1011.6
20260503072858 49 284 1.0 2.0 0.00 0.03 0.00 76 1011.6
20260503072401 49 234 1.0 2.0 0.00 0.03 0.00 76 1011.4
20260503071931 49 232 0.0 5.0 0.00 0.03 0.00 75 1011.4
20260503070919 49 234 0.0 4.0 0.00 0.03 0.00 74 1011.0
20260503070333 50 229 1.0 4.0 0.00 0.03 0.00 74 1011.0
20260503054837 52 298 1.0 7.0 0.00 0.03 0.00 71 1010.4
20260503054509 52 317 1.0 4.0 0.00 0.03 0.00 70 1010.4
20260503054348 52 321 1.0 4.0 0.00 0.03 0.00 70 1010.4
20260503053835 52 336 0.0 2.0 0.00 0.03 0.00 70 1010.6
20260503053332 53 307 0.0 2.0 0.00 0.03 0.00 70 1010.8
20260503053108 52 307 0.0 2.0 0.00 0.03 0.00 69 1010.7
20260503052826 53 233 1.0 2.0 0.00 0.03 0.00 69 1010.8
20260503052342 53 5 0.0 4.0 0.00 0.03 0.00 69 1010.8
20260503051859 54 298 0.0 3.0 0.00 0.03 0.00 69 1010.9
20260503051509 53 280 1.0 4.0 0.00 0.03 0.00 68 1010.9
20260503051353 54 269 1.0 5.0 0.00 0.03 0.00 68 1010.8
20260503050846 54 230 1.0 5.0 0.00 0.03 0.00 68 1010.7
20260503050020 54 236 1.0 6.0 0.00 0.03 0.00 67 1010.6
20260503045841 54 304 1.0 6.0 0.00 0.03 0.00 67 1010.7
20260503045334 54 311 2.0 5.0 0.00 0.03 0.00 67 1010.8
20260503044825 55 300 0.0 4.0 0.00 0.03 0.00 66 1010.8
20260503044608 54 302 0.0 4.0 0.00 0.03 0.00 66 1010.8
20260503044403 55 279 1.0 5.0 0.00 0.03 0.00 65 1010.8
20260503043900 55 341 2.0 5.0 0.00 0.03 0.00 65 1010.7
20260503043333 55 324 1.0 5.0 0.00 0.03 0.00 64 1010.7
20260503043006 55 323 1.0 5.0 0.00 0.03 0.00 63 1010.7
20260503042828 55 276 1.0 5.0 0.00 0.03 0.00 63 1010.8
20260503042322 55 334 1.0 6.0 0.00 0.03 0.00 62 1010.8
20260503041838 56 317 1.0 6.0 0.00 0.03 0.00 62 1010.8
20260503041612 55 263 2.0 6.0 0.00 0.03 0.00 62 1010.8
20260503041335 56 306 2.0 6.0 0.00 0.03 0.00 62 1010.8
20260503040826 56 340 2.0 8.0 0.00 0.03 0.00 62 1010.9
20260503040322 56 307 3.0 8.0 0.00 0.03 0.00 62 1010.9
20260503040110 55 325 4.0 8.0 0.00 0.03 0.03 62 1010.9
20260503035328 56 333 3.0 10.0 0.00 0.03 0.03 61 1010.8
20260503034903 56 349 3.0 10.0 0.00 0.03 0.03 60 1010.9
20260503034357 56 325 5.0 9.0 0.00 0.03 0.03 60 1010.9
20260503033850 56 326 2.0 9.0 0.00 0.03 0.03 60 1010.8
20260503033338 56 337 4.0 13.0 0.00 0.03 0.03 59 1010.8
20260503032847 56 22 3.0 10.0 0.00 0.03 0.03 60 1010.7
20260503032420 56 290 5.0 10.0 0.00 0.03 0.03 60 1010.5
20260503031921 56 321 4.0 8.0 0.00 0.03 0.03 60 1010.4
20260503031401 56 326 4.0 10.0 0.00 0.03 0.03 60 1010.5
20260503030908 56 316 4.0 9.0 0.00 0.03 0.03 60 1010.6
20260503030418 56 335 5.0 13.0 0.00 0.03 0.03 60 1010.6
20260503025912 56 5 7.0 13.0 0.00 0.03 0.03 59 1010.7
20260503025417 56 351 2.0 11.0 0.00 0.03 0.03 60 1010.9
20260503024849 56 318 5.0 9.0 0.00 0.03 0.03 60 1010.9
20260503024346 56 10 3.0 7.0 0.00 0.03 0.03 61 1010.8
20260503023844 56 312 4.0 8.0 0.00 0.03 0.03 60 1010.8
20260503023351 56 14 3.0 9.0 0.00 0.03 0.03 61 1010.8
20260503022903 56 360 4.0 10.0 0.00 0.03 0.03 60 1010.9
20260503021841 56 17 5.0 9.0 0.00 0.03 0.03 60 1010.8
20260503021344 56 350 3.0 10.0 0.00 0.03 0.03 60 1010.9
20260503020907 56 360 6.0 10.0 0.00 0.03 0.03 60 1010.8
20260503015338 56 325 5.0 9.0 0.00 0.03 0.03 60 1010.9
20260503014845 56 19 3.0 12.0 0.00 0.03 0.03 61 1010.8
20260503013839 56 355 5.0 11.0 0.00 0.03 0.03 59 1010.6
20260503013345 56 346 7.0 11.0 0.00 0.03 0.03 59 1010.5
20260503012332 56 355 7.0 16.0 0.00 0.03 0.03 59 1010.4
20260503011842 56 349 7.0 16.0 0.00 0.03 0.03 59 1010.5
20260503011348 56 340 7.0 14.0 0.00 0.03 0.03 58 1010.6
20260503010912 56 360 6.0 12.0 0.00 0.03 0.03 58 1010.6
20260503010407 56 323 6.0 12.0 0.00 0.03 0.03 58 1010.6
20260503005920 56 21 6.0 15.0 0.00 0.03 0.03 58 1010.5
20260503005412 56 350 7.0 15.0 0.00 0.03 0.03 58 1010.5
20260503004935 56 324 5.0 12.0 0.00 0.03 0.03 56 1010.5
20260503004414 56 330 7.0 12.0 0.00 0.03 0.03 57 1010.4
20260503003832 56 11 7.0 16.0 0.00 0.03 0.03 56 1010.2
20260503003355 56 355 7.0 16.0 0.00 0.03 0.03 57 1010.3
20260503002847 56 344 6.0 12.0 0.00 0.03 0.03 58 1010.2
20260503002412 56 360 6.0 14.0 0.00 0.03 0.03 58 1010.1
20260503001914 56 13 6.0 14.0 0.00 0.03 0.03 60 1010.0
20260503001345 56 350 5.0 14.0 0.00 0.03 0.03 60 1009.9
20260503000842 55 325 6.0 11.0 0.00 0.03 0.03 61 1009.9
20260503000400 55 17 7.0 10.0 0.00 0.03 0.03 61 1009.9